Virginia Beach, VA

11:03 PM EST on December 08, 2016 (GMT -0500)
Oceana Naval Air Station

Weather History for KNTU - June, 2013

Change the Weather History Date:

Saturday, June 15, 2013

  Actual Average Record
Temperature  
Mean Temperature 70 °F -  
Max Temperature 82 °F 79 °F 99 °F (2015)
Min Temperature 60 °F 64 °F 59 °F (1997)
Cooling Degree Days 5    
Growing Degree Days 20 (Base 50)    
Moisture  
Dew Point 60 °F    
Average Humidity 68    
Maximum Humidity 87    
Minimum Humidity 45    
Precipitation  
Precipitation 0.00 in - - ()
Sea Level Pressure  
Sea Level Pressure 30.04 in    
Wind  
Wind Speed 7 mph (SSW)    
Max Wind Speed 12 mph    
Max Gust Speed -    
Visibility 10 miles    
Events      
Averages and records for this station are not official NWS values.
T = Trace of Precipitation, MM = Missing Value Source: NWS Daily Summary

Daily Weather History Graph

Daily Weather History Graph

Search for Another Location

Airport or City:

Trip Planner

Search our weather history database for the weather conditions in past years. The results will help you decide how hot, cold, wet, or windy it might be!

Date:

Astronomy

Jun. 15, 2013 Rise Set
Actual Time 5:44 AM EDT 8:24 PM EDT
Civil Twilight 5:13 AM EDT 8:55 PM EDT
Nautical Twilight 4:35 AM EDT 9:33 PM EDT
Astronomical Twilight 3:52 AM EDT 10:16 PM EDT
Moon 12:07 PM EDT (6/15) 12:07 AM EDT (6/15)
Length of Visible Light 15h 41m
Length of Day
14h 40m
Waxing Crescent, 39% of the Moon is Illuminated
Jun 15
Waxing Crescent
Jun 16
First Quarter
Jun 23
Full
Jun 30
Last Quarter
Jul 8
New

Hourly Weather History & Observations

Time (EDT) Temp. Heat Index Dew Point Humidity Pressure Visibility Wind Dir Wind Speed Gust Speed Precip Events Conditions
12:56 AM 62.1 °F - 55.0 °F 78% 29.99 in 10.0 mi SW 6.9 mph - N/A   Clear
1:56 AM 60.1 °F - 54.0 °F 80% 29.99 in 10.0 mi WSW 8.1 mph - N/A   Clear
2:56 AM 62.1 °F - 54.0 °F 75% 29.99 in 10.0 mi SW 8.1 mph - N/A   Clear
3:56 AM 61.0 °F - 54.0 °F 78% 29.99 in 10.0 mi WSW 6.9 mph - N/A   Clear
4:56 AM 61.0 °F - 54.0 °F 78% 30.00 in 10.0 mi WSW 9.2 mph - N/A   Clear
5:56 AM 61.0 °F - 55.0 °F 81% 30.02 in 10.0 mi West 6.9 mph - N/A   Clear
6:56 AM 64.9 °F - 57.0 °F 75% 30.05 in 10.0 mi West 8.1 mph - N/A   Clear
7:56 AM 70.0 °F - 57.9 °F 65% 30.06 in 10.0 mi West 9.2 mph - N/A   Clear
8:56 AM 73.9 °F - 60.1 °F 62% 30.08 in 10.0 mi WNW 6.9 mph - N/A   Clear
9:56 AM 75.9 °F - 61.0 °F 60% 30.08 in 10.0 mi NNW 8.1 mph - N/A   Clear
10:56 AM 79.0 °F - 60.1 °F 52% 30.08 in 10.0 mi Variable 4.6 mph - N/A   Clear
11:56 AM 80.1 °F 80.9 °F 60.1 °F 50% 30.07 in 10.0 mi Variable 3.5 mph - N/A   Scattered Clouds
12:56 PM 80.1 °F 80.4 °F 57.0 °F 45% 30.07 in 10.0 mi NW 9.2 mph - N/A   Scattered Clouds
1:56 PM 77.0 °F - 61.0 °F 58% 30.06 in 10.0 mi ESE 9.2 mph - N/A   Scattered Clouds
2:56 PM 79.0 °F - 61.0 °F 54% 30.05 in 10.0 mi ESE 10.4 mph - N/A   Scattered Clouds
3:56 PM 80.1 °F 81.5 °F 63.0 °F 56% 30.03 in 10.0 mi ESE 9.2 mph - N/A   Scattered Clouds
4:56 PM 79.0 °F - 61.0 °F 54% 30.04 in 10.0 mi SE 11.5 mph - N/A   Scattered Clouds
5:56 PM 79.0 °F - 62.1 °F 56% 30.03 in 10.0 mi ESE 9.2 mph - N/A   Scattered Clouds
6:56 PM 75.9 °F - 61.0 °F 60% 30.04 in 10.0 mi ESE 9.2 mph - N/A   Scattered Clouds
7:56 PM 73.0 °F - 64.0 °F 73% 30.04 in 10.0 mi SE 10.4 mph - N/A   Scattered Clouds
8:56 PM 70.0 °F - 64.9 °F 84% 30.04 in 10.0 mi East 3.5 mph - N/A   Scattered Clouds
9:56 PM 70.0 °F - 64.9 °F 84% 30.05 in 10.0 mi Calm Calm - N/A   Partly Cloudy
10:56 PM 69.1 °F - 64.9 °F 87% 30.06 in 10.0 mi Calm Calm - N/A   Clear
11:56 PM 69.1 °F - 64.9 °F 87% 30.06 in 10.0 mi Calm Calm - N/A   Clear